Address 0x22237b3e5a6809e17e7a518fee4b10aa430f5185

 

Overview

Balance:
0.000205367146037954 ETH

ETH Value:
$0.75 (@ $3,656.00/ETH)

Token:
Txn Hash Method
Block
From
To
Value [Txn Fee]
0x808bffae7b426ffd93f97af8b4b86070d04f49bf095379bb905c831d8ca3f0f9Execute1858806842024-03-01 3:08:4181 days 4 hrs ago0x22237b3e5a6809e17e7a518fee4b10aa430f5185OUT Marginly: WETH-USDC LP 20 ETH0.00015686 0.1
0x9466d297af18270b6e78a92a679ced2a88cbc9ec45982d342b81623e9576e380Execute1856645602024-02-29 11:45:1681 days 19 hrs ago0x22237b3e5a6809e17e7a518fee4b10aa430f5185OUT Marginly: WETH-USDC LP 20 ETH0.00019989 0.1
0xdcde31368f383de0b87a29b029af31e5b1df96baf39a2adce0c7db49cbea0ccbExecute1856544442024-02-29 11:02:2881 days 20 hrs ago0x22237b3e5a6809e17e7a518fee4b10aa430f5185OUT Marginly: WETH-USDC LP 20 ETH0.0004082 0.1
0x99526ac211146206557590d3d55c30c62da2e25fff65ee2f41307fbe5c47ed87Execute1854148182024-02-28 18:00:2682 days 13 hrs ago0x22237b3e5a6809e17e7a518fee4b10aa430f5185OUT Marginly: WETH-USDC LP 20 ETH0.00075032 0.1
0x054f83bb23eadd58838e42ddafe1e01662c6779f8d89fa7bda898b45b85a088bExecute1854085552024-02-28 17:34:2282 days 13 hrs ago0x22237b3e5a6809e17e7a518fee4b10aa430f5185OUT Marginly: WETH-USDC LP 20 ETH0.0023625 4.22548
0x373cc08ebba7776078045c87f1c0184f2ea73769cdee141a84feaa354b4f394cExecute1854085532024-02-28 17:34:2282 days 13 hrs ago0x22237b3e5a6809e17e7a518fee4b10aa430f5185OUT Marginly: WETH-USDC LP 20 ETH0.00147636 4.21571
0xc6e44f62a509ea650ad13d0d90e1d7d3cc81bbb9af85712b7b72afa82361d5c1Execute1851791302024-02-28 1:27:5783 days 5 hrs ago0x22237b3e5a6809e17e7a518fee4b10aa430f5185OUT Marginly: WETH-USDC LP 20 ETH0.00017307 0.1
0x18016ae5b50a1f82b12abe7b1a1709ef59065382d915cd32347672efd7adf313Execute1851717062024-02-28 0:55:5683 days 6 hrs ago0x22237b3e5a6809e17e7a518fee4b10aa430f5185OUT Marginly: WETH-USDC LP 20 ETH0.00014642 0.1
0x331473a8972c4af36238f9cd01eb63fca1d52dee7b92bd1fe916f7f286be8f8fExecute1849365232024-02-27 8:07:1683 days 23 hrs ago0x22237b3e5a6809e17e7a518fee4b10aa430f5185OUT Marginly: WETH-USDC LP 20 ETH0.00014009 0.1
0x969bdde0bc15f9f0d27f70d98e9028d2edaff350d0c5882ae3337e5db60ffee4Execute1849331942024-02-27 7:53:1583 days 23 hrs ago0x22237b3e5a6809e17e7a518fee4b10aa430f5185OUT Marginly: WETH-USDC LP 20.00105 ETH0.00016811 0.1
0x0b8fb50c5ac54ff37e28fb79686379136c15b979d652fd687a8d2669df5bc1e8Execute1849327162024-02-27 7:51:1483 days 23 hrs ago0x22237b3e5a6809e17e7a518fee4b10aa430f5185OUT Marginly: WETH-USDC LP 20 ETH0.00013576 0.1
0x47a88f8883f0fa29a6d0002148af174990e7d852e38d5af31a3eaa66f0f45049Execute1846966282024-02-26 14:56:3184 days 16 hrs ago0x22237b3e5a6809e17e7a518fee4b10aa430f5185OUT Marginly: WETH-USDC LP 20 ETH0.00022536 0.1
0x8fbc771c0d2aab98fd4a7dd597a08bc84fca9cee11136fff8fa0f6d2c1e4dc65Execute1846928262024-02-26 14:40:3084 days 16 hrs ago0x22237b3e5a6809e17e7a518fee4b10aa430f5185OUT Marginly: WETH-USDC LP 20 ETH0.0002941 0.1
0x807e2fdd7a178f638d040895f82c612525ae980ae744dc03965b111ce24a6b52Execute1846923432024-02-26 14:38:2984 days 16 hrs ago0x22237b3e5a6809e17e7a518fee4b10aa430f5185OUT Marginly: WETH-USDC LP 20 ETH0.00023996 0.1
0x15098a8b5c33bfef1a17d346276a3fbfb29be86ff15217d1f638685e6a5d80e7Execute1844545912024-02-25 21:44:0985 days 9 hrs ago0x22237b3e5a6809e17e7a518fee4b10aa430f5185OUT Marginly: WETH-USDC LP 20 ETH0.00015191 0.1
0x468330da89b9ef2bc184430ad8736744a16690951bc0a6e5b01f0ecd9701edcbExecute1844486152024-02-25 21:18:0885 days 9 hrs ago0x22237b3e5a6809e17e7a518fee4b10aa430f5185OUT Marginly: WETH-USDC LP 20.00105 ETH0.00018699 0.1
0xf5ffe2b899b28e4032ba4f618a5d52d9765c835059e6e289051be06785e832bdExecute1844486132024-02-25 21:18:0785 days 9 hrs ago0x22237b3e5a6809e17e7a518fee4b10aa430f5185OUT Marginly: WETH-USDC LP 20 ETH0.00015597 0.1
0x4024165a5b190c99683bd0d9ff4ca2f14dca545874f29387b218a8b18545e3a3Execute1842238042024-02-25 5:18:2086 days 1 hr ago0x22237b3e5a6809e17e7a518fee4b10aa430f5185OUT Marginly: WETH-USDC LP 20 ETH0.00012936 0.1
0x2fede01a6b7fea01385e967a43d1f98389cfc7e946a80f8a3e4b814da1246b08Execute1842181192024-02-25 4:52:1686 days 2 hrs ago0x22237b3e5a6809e17e7a518fee4b10aa430f5185OUT Marginly: WETH-USDC LP 20 ETH0.00013292 0.1
0x5614848d5d6c4601974f896d1e7846a06374b59ebd1c323a046404920833d01aExecute1842176692024-02-25 4:50:1586 days 2 hrs ago0x22237b3e5a6809e17e7a518fee4b10aa430f5185OUT Marginly: WETH-USDC LP 20 ETH0.00010464 0.1
0x2af957546421175d5474003505eedfe23b9c9644002b20af1be4701c2c74b28bExecute1839896822024-02-24 12:19:5886 days 18 hrs ago0x22237b3e5a6809e17e7a518fee4b10aa430f5185OUT Marginly: WETH-USDC LP 20 ETH0.00011023 0.1
0xbd8f7b73e1f83d2d4dd6724df3924702108339955b362b29d44c9ea51b655b06Execute1839849412024-02-24 11:59:5486 days 19 hrs ago0x22237b3e5a6809e17e7a518fee4b10aa430f5185OUT Marginly: WETH-USDC LP 20 ETH0.00013355 0.1
0xf858567d43e69f23a90f4825d7455c16e0be2faed84d7e45c202f6969385a164Execute1837744052024-02-23 20:30:3787 days 10 hrs ago0x22237b3e5a6809e17e7a518fee4b10aa430f5185OUT Marginly: WETH-USDC LP 20 ETH0.00016723 0.1
0x0e7f0a78775887dcb0647fafa02d6b96ee6681ca2fd9ccc1caad56c1d74ea3c4Execute1835684802024-02-23 5:46:5788 days 1 hr ago0x22237b3e5a6809e17e7a518fee4b10aa430f5185OUT Marginly: WETH-USDC LP 20 ETH0.00013511 0.1
0x995ef8d14f980ed33f4ebc33712b5ffba84c053a544f2663359675dfd2d68c56Execute1833461052024-02-22 13:08:0388 days 18 hrs ago0x22237b3e5a6809e17e7a518fee4b10aa430f5185OUT Marginly: WETH-USDC LP 20 ETH0.00016435 0.1
[ Download CSV Export 
Latest 7 internal transactions
Parent Txn Hash Block From To Value
0x373cc08ebba7776078045c87f1c0184f2ea73769cdee141a84feaa354b4f394c1854085532024-02-28 17:34:2282 days 13 hrs ago Marginly: WETH-USDC LP 20x22237b3e5a6809e17e7a518fee4b10aa430f51850.001044351017288697 ETH
0x807e2fdd7a178f638d040895f82c612525ae980ae744dc03965b111ce24a6b521846923432024-02-26 14:38:2984 days 16 hrs ago Marginly: WETH-USDC LP 20x22237b3e5a6809e17e7a518fee4b10aa430f51850.001049200763134822 ETH
0x5614848d5d6c4601974f896d1e7846a06374b59ebd1c323a046404920833d01a1842176692024-02-25 4:50:1586 days 2 hrs ago Marginly: WETH-USDC LP 20x22237b3e5a6809e17e7a518fee4b10aa430f51850.001033726198420655 ETH
0xff297715b92fcf1e8c92270dcb175532963ee37609eeacb75bf60403b186b0cf1830967532024-02-21 19:14:0089 days 11 hrs ago Marginly: WETH-USDC LP 20x22237b3e5a6809e17e7a518fee4b10aa430f51850.001052143703167558 ETH
0x2b8995aad4de63d4b115cebf3654e7fab304044bede13225a888f540798923601819546952024-02-18 9:29:3592 days 21 hrs ago Marginly: WETH-USDC LP 20x22237b3e5a6809e17e7a518fee4b10aa430f51850.001042041155261578 ETH
0xd2e73e68f79844625a280cd97894a3a93aad5a6094ff73e8c44c48a92cfb0aac1797652592024-02-11 20:01:1399 days 11 hrs ago Marginly: WETH-USDC LP 20x22237b3e5a6809e17e7a518fee4b10aa430f51850.001049085698798882 ETH
0xb4bcc95fafba0725e480f1aa6c03590abff615e6b0ab4e9ddbcfcc1cb2e746ad1763984552024-02-01 13:22:41109 days 17 hrs ago Marginly: WETH-USDC LP 20x22237b3e5a6809e17e7a518fee4b10aa430f51850.000995846569025762 ETH
[ Download CSV Export 
Loading

Contract Name:
0 ETH

Compiler Version
0

Optimization Enabled:
0 ETH

Other Settings:
-NA-
Block Transaction Gas Used Reward
Age Block Fee Address BC Fee Address Voting Power Jailed Incoming
Block Uncle Number Difficulty Gas Used Reward
Loading
Make sure to use the "Vote Down" button for any spammy posts, and the "Vote Up" for interesting conversations.